Regional Weather Roundup
Issued by NWS Albany, NY

Home | Current Version | Previous Version | Graphics & Text | Print | Product List | Glossary Off
Versions: 1 2 3 4 5 6 7 8 9 10 11 12 13 14 15 16 17 18 19 20 21 22 23 24 25 26 27 28 29 30 31 32 33 34 35 36 37 38 39 40 41 42 43 44 45 46 47 48 49 50

000
ASUS41 KALY 251810
RWRALY

NEW YORK STATE HOURLY WEATHER ROUNDUP
NATIONAL WEATHER SERVICE ALBANY NY
200 PM EDT MON MAY 25 2015

NOTE: "FAIR" INDICATES FEW OR NO CLOUDS BELOW 12,000 FEET WITH NO
SIGNIFICANT WEATHER AND/OR NO OBSTRUCTIONS TO VISIBILITY.

NYZ032-033-038>043-046>054-057>066-NYZ062>081-251900-
EAST


CITY           SKY/WX    TMP DP  RH WIND       PRES   REMARKS
ALBANY         PTSUNNY   80  54  40 S12G23    30.13F
GLENS FALLS    NOT AVBL
POUGHKEEPSIE   MOSUNNY   84  58  40 S9G18     30.15F
NEWBURGH       MOSUNNY   82  61  47 SW7G23    30.18F
WHITE PLAINS   MOSUNNY   81  59  47 S10G23    30.20F
ISLIP          PTSUNNY   72  58  61 S12       30.23F
NEW YORK CITY  MOSUNNY   82  58  43 S13       30.20F
CENTRAL PARK   SUNNY     85  58  39 MISG      30.23F
$$

NYZ005>009-017-018-044>046-055-056-251900-
CENTRAL


CITY           SKY/WX    TMP DP  RH WIND       PRES   REMARKS
FULTON         MOSUNNY   84  57  39 SW12      30.05F
SYRACUSE       MOSUNNY   85  55  35 SW10G20   30.05F
ROME           MOSUNNY   80  58  46 SE8       30.10F
ELMIRA         MOSUNNY   82  56  40 SW14      30.09F
BINGHAMTON     SUNNY     80  54  40 SW14G23   30.15F
MONTICELLO     MOSUNNY   82  55  39 SW9G20    30.19F
$$

NYZ026>034-041>043-251900-
NORTH


CITY           SKY/WX    TMP DP  RH WIND       PRES   REMARKS
WATERTOWN      PTSUNNY   81  52  36 SW13G20   30.03F
FORT DRUM      NOT AVBL
MASSENA        LGT RAIN  64  60  87 E3        30.10F
SARANAC LAKE   CLOUDY    67  54  63 VRB7      30.13F
PLATTSBURGH    CLOUDY    62  52  69 SE6       30.13F
$$

NYZ001>004-010>016-019>021-251900-
WEST


CITY           SKY/WX    TMP DP  RH WIND       PRES   REMARKS
NIAGARA FALLS  PTSUNNY   81  60  48 SW20G26   30.03F
BUFFALO        CLOUDY    75  63  66 S10       30.06F
DUNKIRK        PTSUNNY   78  65  63 SW6       30.06F
JAMESTOWN      CLOUDY    75  57  53 S12       30.13F
WELLSVILLE     MOSUNNY   79  54  41 SW13G23   30.16F
ROCHESTER      PTSUNNY   84  54  35 SW16G24   30.04F
PENN YAN       SUNNY     86  53  32 S15G23    30.08F
$$

             KEY
       WCI = WIND CHILL INDEX
       VSB = VISIBILITY
       HX  = HEAT INDEX
$$


USA.gov is the U.S. government's official web portal to all federal, state and local government web resources and services.